Liberal, KS

11:46 PM CDT on October 18, 2017 (GMT -0500)
Liberal Municipal

Weather History for KLBL - November, 2012

Change the Weather History Date:

Friday, November 2, 2012

  Actual Average Record
Temperature  
Mean Temperature 58 °F -  
Max Temperature 75 °F 61 °F 85 °F (1990)
Min Temperature 41 °F 34 °F 8 °F (1951)
Degree Days  
Heating Degree Days 7    
Growing Degree Days 8 (Base 50)    
Moisture  
Dew Point 29 °F    
Average Humidity 37    
Maximum Humidity 62    
Minimum Humidity 20    
Precipitation  
Precipitation 0.00 in - - ()
Sea Level Pressure  
Sea Level Pressure 29.93 in    
Wind  
Wind Speed 13 mph (NNW)    
Max Wind Speed 25 mph    
Max Gust Speed 36 mph    
Visibility 10 miles    
Events      
Averages and records for this station are not official NWS values.
T = Trace of Precipitation, MM = Missing Value Source: NWS Daily Summary

Daily Weather History Graph

Daily Weather History Graph

Search for Another Location

Airport or City:

Trip Planner

Search our weather history database for the weather conditions in past years. The results will help you decide how hot, cold, wet, or windy it might be!

Date:

Astronomy

Nov. 02, 2012 Rise Set
Actual Time 8:09 AM CDT 6:44 PM CDT
Civil Twilight 7:42 AM CDT 7:11 PM CDT
Nautical Twilight 7:11 AM CDT 7:42 PM CDT
Astronomical Twilight 6:41 AM CDT 8:12 PM CDT
Moon 9:36 PM CDT (11/2) 11:28 AM CDT (11/2)
Length of Visible Light 11h 29m
Length of Day
10h 35m
Waning Gibbous, 87% of the Moon is Illuminated
Nov 2
Waning Gibbous
Nov 6
Last Quarter
Nov 13
New
Nov 20
First Quarter
Nov 28
Full

Hourly Weather History & Observations

Time (CDT) Temp. Windchill Dew Point Humidity Pressure Visibility Wind Dir Wind Speed Gust Speed Precip Events Conditions
12:15 AM 51.8 °F - 30.2 °F 44% 29.89 in 10.0 mi SSE 10.4 mph - N/A   Clear
12:35 AM 51.8 °F - 32.0 °F 47% 29.89 in 10.0 mi SSE 10.4 mph - N/A   Clear
12:55 AM 50.0 °F - 30.2 °F 47% 29.89 in 10.0 mi South 10.4 mph - N/A   Clear
1:15 AM 50.0 °F - 30.2 °F 47% 29.88 in 10.0 mi SSE 11.5 mph - N/A   Clear
1:35 AM 51.8 °F - 30.2 °F 44% 29.88 in 10.0 mi SSE 11.5 mph - N/A   Clear
1:55 AM 48.2 °F - 30.2 °F 50% 29.87 in 10.0 mi SSE 10.4 mph - N/A   Clear
2:15 AM 48.2 °F - 28.4 °F 46% 29.87 in 10.0 mi SSE 11.5 mph - N/A   Clear
2:35 AM 46.4 °F 40.7 °F 28.4 °F 50% 29.86 in 10.0 mi South 12.7 mph - N/A   Clear
2:55 AM 50.0 °F - 30.2 °F 47% 29.86 in 10.0 mi South 12.7 mph - N/A   Clear
3:15 AM 51.8 °F - 28.4 °F 41% 29.85 in 10.0 mi South 15.0 mph - N/A   Clear
3:35 AM 51.8 °F - 28.4 °F 41% 29.85 in 10.0 mi SSW 13.8 mph - N/A   Clear
3:55 AM 50.0 °F - 26.6 °F 40% 29.85 in 10.0 mi SW 11.5 mph - N/A   Clear
4:15 AM 48.2 °F - 26.6 °F 43% 29.84 in 10.0 mi SSW 13.8 mph - N/A   Clear
4:35 AM 48.2 °F - 26.6 °F 43% 29.84 in 10.0 mi SSW 16.1 mph - N/A   Clear
4:55 AM 48.2 °F - 26.6 °F 43% 29.84 in 10.0 mi SW 15.0 mph - N/A   Clear
5:15 AM 48.2 °F - 24.8 °F 40% 29.84 in 10.0 mi SW 12.7 mph - N/A   Clear
5:35 AM 46.4 °F 41.1 °F 24.8 °F 43% 29.84 in 10.0 mi SW 11.5 mph - N/A   Clear
5:55 AM 44.6 °F 41.4 °F 21.2 °F 39% 29.85 in 10.0 mi WSW 5.8 mph - N/A   Clear
6:15 AM 41.0 °F 35.2 °F 21.2 °F 45% 29.85 in 10.0 mi WSW 9.2 mph - N/A   Clear
6:35 AM 41.0 °F 34.7 °F 23.0 °F 49% 29.85 in 10.0 mi SW 10.4 mph - N/A   Clear
6:55 AM 44.6 °F 38.8 °F 24.8 °F 46% 29.85 in 10.0 mi WSW 11.5 mph - N/A   Clear
7:15 AM 42.8 °F 37.0 °F 23.0 °F 46% 29.85 in 10.0 mi WSW 10.4 mph - N/A   Clear
7:35 AM 42.8 °F 36.2 °F 23.0 °F 46% 29.85 in 10.0 mi WSW 12.7 mph - N/A   Clear
7:55 AM 44.6 °F 39.2 °F 23.0 °F 43% 29.85 in 10.0 mi WSW 10.4 mph - N/A   Clear
8:15 AM 44.6 °F 39.2 °F 21.2 °F 39% 29.86 in 10.0 mi West 10.4 mph - N/A   Clear
8:35 AM 42.8 °F 37.0 °F 21.2 °F 42% 29.87 in 10.0 mi West 10.4 mph - N/A   Clear
8:55 AM 44.6 °F 40.7 °F 23.0 °F 43% 29.87 in 10.0 mi West 6.9 mph - N/A   Clear
9:15 AM 46.4 °F 42.9 °F 23.0 °F 40% 29.88 in 10.0 mi West 6.9 mph - N/A   Clear
9:35 AM 51.8 °F - 26.6 °F 38% 29.89 in 10.0 mi WNW 10.4 mph - N/A   Clear
9:55 AM 57.2 °F - 28.4 °F 33% 29.89 in 10.0 mi WNW 15.0 mph - N/A   Clear
10:15 AM 59.0 °F - 26.6 °F 29% 29.90 in 10.0 mi NW 13.8 mph - N/A   Clear
10:35 AM 62.6 °F - 30.2 °F 30% 29.90 in 10.0 mi NW 21.9 mph 25.3 mph N/A   Clear
10:55 AM 64.4 °F - 32.0 °F 30% 29.91 in 10.0 mi NNW 18.4 mph 24.2 mph N/A   Clear
11:15 AM 64.4 °F - 32.0 °F 30% 29.91 in 10.0 mi NW 19.6 mph - N/A   Clear
11:35 AM 64.4 °F - 33.8 °F 32% 29.92 in 10.0 mi NW 16.1 mph - N/A   Clear
11:55 AM 66.2 °F - 33.8 °F 30% 29.92 in 10.0 mi NNW 17.3 mph 21.9 mph N/A   Clear
12:15 PM 66.2 °F - 33.8 °F 30% 29.92 in 10.0 mi NNW 18.4 mph - N/A   Clear
12:35 PM 69.8 °F - 35.6 °F 28% 29.92 in 10.0 mi North 18.4 mph 25.3 mph N/A   Clear
12:55 PM 71.6 °F - 35.6 °F 27% 29.92 in 10.0 mi North 23.0 mph 27.6 mph N/A   Clear
1:15 PM 73.4 °F - 35.6 °F 25% 29.91 in 10.0 mi North 25.3 mph 35.7 mph N/A   Clear
1:35 PM 73.4 °F - 33.8 °F 23% 29.92 in 10.0 mi North 23.0 mph - N/A   Clear
1:55 PM 73.4 °F - 33.8 °F 23% 29.91 in 10.0 mi NNE 23.0 mph 31.1 mph N/A   Clear
2:15 PM 75.2 °F - 33.8 °F 22% 29.92 in 10.0 mi North 18.4 mph 28.8 mph N/A   Clear
2:35 PM 75.2 °F - 33.8 °F 22% 29.92 in 10.0 mi NNE 21.9 mph 26.5 mph N/A   Clear
2:55 PM 75.2 °F - 33.8 °F 22% 29.91 in 10.0 mi NNE 19.6 mph - N/A   Clear
3:15 PM 75.2 °F - 33.8 °F 22% 29.91 in 10.0 mi NNE 18.4 mph 24.2 mph N/A   Clear
3:35 PM 75.2 °F - 33.8 °F 22% 29.91 in 10.0 mi North 17.3 mph 24.2 mph N/A   Clear
3:55 PM 75.2 °F - 33.8 °F 22% 29.91 in 10.0 mi North 21.9 mph 25.3 mph N/A   Clear
4:15 PM 75.2 °F - 33.8 °F 22% 29.92 in 10.0 mi NNE 19.6 mph 24.2 mph N/A   Clear
4:35 PM 75.2 °F - 33.8 °F 22% 29.92 in 10.0 mi NNE 19.6 mph - N/A   Clear
4:55 PM 75.2 °F - 32.0 °F 21% 29.93 in 10.0 mi NNE 17.3 mph - N/A   Clear
5:15 PM 73.4 °F - 32.0 °F 22% 29.93 in 10.0 mi NNE 16.1 mph - N/A   Clear
5:35 PM 73.4 °F - 30.2 °F 20% 29.94 in 10.0 mi North 21.9 mph 26.5 mph N/A   Clear
5:55 PM 71.6 °F - 30.2 °F 22% 29.95 in 10.0 mi North 17.3 mph - N/A   Clear
6:15 PM 69.8 °F - 30.2 °F 23% 29.96 in 10.0 mi NNE 15.0 mph - N/A   Clear
6:35 PM 66.2 °F - 30.2 °F 26% 29.97 in 10.0 mi North 12.7 mph - N/A   Clear
6:55 PM 64.4 °F - 28.4 °F 26% 29.98 in 10.0 mi NNE 12.7 mph - N/A   Clear
7:15 PM 60.8 °F - 28.4 °F 29% 29.99 in 10.0 mi NNE 9.2 mph - N/A   Clear
7:35 PM 59.0 °F - 28.4 °F 31% 30.01 in 10.0 mi NNE 13.8 mph - N/A   Clear
7:55 PM 57.2 °F - 28.4 °F 33% 30.02 in 10.0 mi North 13.8 mph - N/A   Clear
8:15 PM 57.2 °F - 30.2 °F 36% 30.03 in 10.0 mi NNE 13.8 mph - N/A   Clear
8:35 PM 55.4 °F - 30.2 °F 38% 30.04 in 10.0 mi NNE 15.0 mph - N/A   Clear
8:55 PM 55.4 °F - 30.2 °F 38% 30.05 in 10.0 mi NNE 13.8 mph - N/A   Clear
9:15 PM 53.6 °F - 30.2 °F 41% 30.06 in 10.0 mi NNE 9.2 mph - N/A   Clear
9:35 PM 51.8 °F - 30.2 °F 44% 30.07 in 10.0 mi NNE 8.1 mph - N/A   Clear
9:55 PM 50.0 °F - 30.2 °F 47% 30.08 in 10.0 mi North 6.9 mph - N/A   Clear
10:15 PM 46.4 °F 41.9 °F 28.4 °F 50% 30.09 in 10.0 mi North 9.2 mph - N/A   Clear
10:35 PM 46.4 °F 41.9 °F 30.2 °F 53% 30.10 in 10.0 mi North 9.2 mph - N/A   Clear
10:55 PM 46.4 °F 41.9 °F 30.2 °F 53% 30.10 in 10.0 mi North 9.2 mph - N/A   Clear
11:15 PM 42.8 °F 37.0 °F 28.4 °F 57% 30.09 in 10.0 mi North 10.4 mph - N/A   Clear
11:35 PM 44.6 °F 38.8 °F 32.0 °F 61% 30.10 in 10.0 mi North 11.5 mph - N/A   Clear
11:55 PM 46.4 °F 40.1 °F 33.8 °F 62% 30.09 in 10.0 mi North 15.0 mph - N/A   Clear